Location: Petrozavodsk
(61.7857°N, 34.3593°E)
Time: 14:20:21
(UTC+03:00)

Terra - Pass Details

Date: 22 October 2019
Orbit: 701 x 703 km, 98.2° (Epoch: 21 November)

Event Time Altitude Azimuth Distance (km) Brightness Sun altitude
Exits shadow 21:19:39 31° 12° (NNE) 1,225 3.2 -29.2°
Drops below altitude 10° 21:22:29 10° 349° (NNW) 2,186 4.9 -29.5°
Sets 21:24:49 0° 343° (NNW) 3,108 5.9 -29.7°
